sat.trackr.live / text

‹ back to catalog

STARLINK-6361

NORAD 57379 · 2023-099BD

PAYLOAD ACTIVE UNKNOWN

§ Identity

Operator
Country
US
Launch date
2023-07-16
Launch site
AFETR
Launch vehicle
Mass (kg)
RCS (m²)

Purposes: comms

External: N2YO · Heavens-Above · Gunter

§ Orbital elements

Epoch: 2026-05-25T01:52:39.783072Z

Period
94.27 min
Inclination
43.0022°
Eccentricity
0.0001205
Mean motion
15.27574148 rev/d
Perigee alt
482.2 km
Apogee alt
483.9 km
Semi-major
6,861.2 km
B*
2.8201e-5
RAAN
166.7159°
Arg perigee
278.1720°
Mean anomaly
81.8995°
Rev number
15,792

§ Raw data

STARLINK-63611 57379U 23099BD  26145.07823823  .00000514  00000+0  28201-4 0  99912 57379  43.0022 166.7159 0001205 278.1720  81.8995 15.27574148157922

JSON: /api/v1/satellites/57379 · /tle

For live sub-satellite position, see the globe view (requires WebGL).

§ Visibility from observer

Set your observer location to see the next 7 days of passes ≥ 10°. The values pass through the URL so the page stays shareable.

No JS? Fill the form by hand. The geolocation button needs JavaScript.